World > North America > United States > Tennessee   City of Memphis, TN

Memphis, Tennessee Regional Weather

Lat: 35.15N, Lon: 90.05W
Wx Zone: TNZ088Web Search
Memphis Weather Warning NWS WEATHER ALERT FOR THE MEMPHIS, TN AREA - Issued: 658 PM CST Thu Mar 4 2021 Memphis Weather Warning  

Helpful Tip: Type the letters wx in the search engine next time you need to find us.

Feedback
Memphis Weather Map
UTC Time: 3/5/2021, 10:09
Your Time:

Memphis, TN Regional Weather

Expires:202103051000;;498522
ASUS44 KMEG 050910
RWRTN 
TENNESSEE HOURLY STATE WEATHER ROUNDUP
NATIONAL WEATHER SERVICE MEMPHIS TN
300 AM CST FRI MAR 05 2021


TNZ002-004-019-021-049-052-054-088>092-051000-
WEST TENNESSEE
  
CITY           SKY/WX    TMP DP  RH WIND       PRES   REMARKS
MEMPHIS INTL   PTCLDY    52  34  50 NE10      30.10F                  
NWS MEMPHIS      N/A     50 N/A N/A MISG        N/A                   
JACKSON        CLEAR     46  30  53 NE7       30.14S                  
DYERSBURG      PTCLDY    45  34  65 NE7       30.16S                  
SOMERVILLE     CLEAR     48  32  53 CALM      30.11S                  
COVINGTON      CLEAR     46  37  71 E3        30.13S                  
UNION CITY     CLEAR     45  30  57 NE8       30.16R                  
PARIS          CLEAR     43  30  61 NE13      30.15S                  
HUNTINGDON     CLEAR     45  32  61 NE7       30.15R                  
LEXINGTON      PTCLDY    46  30  53 NE6       30.13R                  
SELMER         CLEAR     46  32  57 NE6       30.11F                  
SAVANNAH       CLEAR     39  37  93 CALM      30.11S                  
$$


SKY/WX - Weather  TMP - Temperature  DP - Dew Point  RH - Relative Humidity
WIND - Wind Direction/Speed PRES - Barometric Pressure VSB - Visibility
WCI - Wind Chill Index E13G22 Wind - East Wind 13 mph/Gusts of 22 mph